Cecil Field, FL

8:56 AM EST on December 13, 2017 (GMT -0500)
Cecil

Weather History for KVQQ - May, 2013

Change the Weather History Date:

Saturday, May 11, 2013

  Actual Average (KNIP) Record (KNIP)
Temperature  
Mean Temperature 73 °F -  
Max Temperature 86 °F 83 °F 96 °F (2003)
Min Temperature 60 °F 65 °F 59 °F (2001)
Cooling Degree Days 8    
Growing Degree Days 23 (Base 50)    
Moisture  
Dew Point 65 °F    
Average Humidity 93    
Maximum Humidity 100    
Minimum Humidity 55    
Precipitation  
Precipitation 0.00 in - - ()
Sea Level Pressure  
Sea Level Pressure 30.01 in    
Wind  
Wind Speed 2 mph (WSW)    
Max Wind Speed 20 mph    
Max Gust Speed -    
Visibility 6 miles    
Events      
Averages and records for this station are not official NWS values.
T = Trace of Precipitation, MM = Missing Value Source: NWS Daily Summary

Daily Weather History Graph

Daily Weather History Graph

Search for Another Location

Airport or City:

Trip Planner

Search our weather history database for the weather conditions in past years. The results will help you decide how hot, cold, wet, or windy it might be!

Date:

Astronomy

May. 11, 2013 Rise Set
Actual Time 6:36 AM EDT 8:11 PM EDT
Civil Twilight 6:10 AM EDT 8:38 PM EDT
Nautical Twilight 5:39 AM EDT 9:09 PM EDT
Astronomical Twilight 5:06 AM EDT 9:42 PM EDT
Moon 7:45 AM EDT (5/11) 9:48 PM EDT (5/11)
Length of Visible Light 14h 27m
Length of Day
13h 35m
Waxing Crescent, 3% of the Moon is Illuminated
May 11
Waxing Crescent
May 18
First Quarter
May 25
Full
May 31
Last Quarter
Jun 8
New

Hourly Weather History & Observations

Time (EDT) Temp. Heat Index Dew Point Humidity Pressure Visibility Wind Dir Wind Speed Gust Speed Precip Events Conditions
12:15 AM 64.4 °F - 64.4 °F 100% 30.06 in 4.0 mi Calm Calm - N/A   Clear
12:35 AM 64.4 °F - 64.4 °F 100% 30.05 in 5.0 mi Calm Calm - N/A   Clear
12:55 AM 64.4 °F - 64.4 °F 100% 30.06 in 7.0 mi Calm Calm - N/A   Clear
1:15 AM 64.4 °F - 64.4 °F 100% 30.06 in 5.0 mi Calm Calm - N/A   Clear
1:35 AM 64.4 °F - 64.4 °F 100% 30.05 in 3.0 mi Calm Calm - N/A   Clear
1:55 AM 64.4 °F - 64.4 °F 100% 30.05 in 3.0 mi Calm Calm - N/A   Clear
2:15 AM 62.6 °F - 62.6 °F 100% 30.04 in 5.0 mi Calm Calm - N/A   Clear
2:35 AM 62.6 °F - 62.6 °F 100% 30.04 in 3.0 mi Calm Calm - N/A   Clear
2:55 AM 62.6 °F - 62.6 °F 100% 30.04 in 2.5 mi Calm Calm - N/A   Clear
3:15 AM 62.6 °F - 62.6 °F 100% 30.03 in 1.5 mi Calm Calm - N/A   Clear
3:35 AM 62.6 °F - 62.6 °F 100% 30.03 in 2.0 mi Calm Calm - N/A   Clear
3:55 AM 60.8 °F - 60.8 °F 100% 30.03 in 5.0 mi Calm Calm - N/A   Clear
4:15 AM 60.8 °F - 60.8 °F 100% 30.02 in 4.0 mi Calm Calm - N/A   Clear
4:35 AM 60.8 °F - 60.8 °F 100% 30.00 in 3.0 mi Calm Calm - N/A   Clear
4:55 AM 62.6 °F - 62.6 °F 100% 30.00 in 5.0 mi Calm Calm - N/A   Clear
5:15 AM 62.6 °F - 62.6 °F 100% 30.01 in 5.0 mi Calm Calm - N/A   Clear
5:35 AM 62.6 °F - 62.6 °F 100% 30.01 in 6.0 mi Calm Calm - N/A   Clear
5:55 AM 62.6 °F - 62.6 °F 100% 30.01 in 6.0 mi Calm Calm - N/A   Clear
6:15 AM 64.4 °F - 62.6 °F 94% 30.02 in 9.0 mi Calm Calm - N/A   Clear
6:35 AM 64.4 °F - 62.6 °F 94% 30.04 in 8.0 mi Calm Calm - N/A   Partly Cloudy
6:50 AM 64.4 °F - 62.6 °F 94% 30.03 in 7.0 mi Calm Calm - N/A   Scattered Clouds
7:50 AM 64.4 °F - 64.4 °F 100% 30.03 in 7.0 mi Calm Calm - N/A   Mostly Cloudy
8:50 AM 68.0 °F - 64.4 °F 88% 30.04 in 7.0 mi Calm Calm - N/A   Clear
9:50 AM 73.4 °F - 64.4 °F 73% 30.04 in 7.0 mi SSW 5.8 mph - N/A   Clear
10:50 AM 78.8 °F - 68.0 °F 69% 30.04 in 7.0 mi WSW 11.5 mph - N/A   Partly Cloudy
11:50 AM 82.4 °F 86.3 °F 69.8 °F 66% 30.02 in 7.0 mi West 13.8 mph - N/A   Mostly Cloudy
12:50 PM 84.2 °F 88.4 °F 69.8 °F 62% 30.01 in 7.0 mi WSW 17.3 mph - N/A   Mostly Cloudy
1:50 PM 86.0 °F 89.4 °F 68.0 °F 55% 29.99 in 7.0 mi WSW 19.6 mph - N/A   Mostly Cloudy
2:50 PM 86.0 °F 89.4 °F 68.0 °F 55% 29.97 in 7.0 mi WSW 11.5 mph - N/A   Mostly Cloudy
4:50 PM 77.0 °F - 71.6 °F 83% 29.96 in 7.0 mi WSW 9.2 mph - N/A   Scattered Clouds
5:50 PM 77.0 °F - 71.6 °F 83% 29.98 in 7.0 mi WSW 9.2 mph - N/A   Mostly Cloudy
7:50 PM 68.0 °F - 68.0 °F 100% 30.01 in 7.0 mi SSW 9.2 mph - N/A   Mostly Cloudy
8:15 PM 68.0 °F - 68.0 °F 100% 29.98 in 7.0 mi Calm Calm - N/A   Clear
8:35 PM 68.0 °F - 68.0 °F 100% 29.97 in 10.0 mi Calm Calm - N/A   Clear
8:55 PM 68.0 °F - 68.0 °F 100% 29.95 in 8.0 mi Calm Calm - N/A   Clear
9:15 PM 66.2 °F - 66.2 °F 100% 29.96 in 5.0 mi Calm Calm - N/A   Clear
9:35 PM 66.2 °F - 66.2 °F 100% 29.96 in 6.0 mi Calm Calm - N/A   Clear
9:55 PM 66.2 °F - 66.2 °F 100% 29.97 in 5.0 mi Calm Calm - N/A   Clear
10:15 PM 66.2 °F - 66.2 °F 100% 29.99 in 6.0 mi Calm Calm - N/A   Clear
10:35 PM 66.2 °F - 66.2 °F 100% 30.00 in 7.0 mi Calm Calm - N/A   Clear
10:55 PM 64.4 °F - 64.4 °F 100% 30.00 in 6.0 mi Calm Calm - N/A   Clear
11:35 PM 64.4 °F - 64.4 °F 100% 30.01 in 1.8 mi Calm Calm - N/A   Clear
11:55 PM 64.4 °F - 64.4 °F 100% 30.01 in 8.0 mi Calm Calm - N/A   Clear